[[{"header":{"parameterUnit":"m.s-1","parameterCategory":1,"la1":30.2991,"la2":30.254,"lo1":-89.0895,"lo2":-89.0444,"dy":0.0017,"dx":0.0017,"nx":28,"ny":28,"refTime":"2023-08-18T09:00:00:Z","depth":0,"parameterNumber":2,"parameterNumberName":"U-component_of_WINDS"},"data":[0,0,0,0,0,0,0,0,0,0,0,0,0,0,0,0,0,0,0,0,0,0,0,0,0,0,0,0,0,0,0,0,0,0,0,0,0,0,0,0,0,0,0,0,0,0,0,0,0,0,0,0,0,0,0,0,0,0,2.8652,2.8653,0,2.869,2.869,2.869,2.8624,2.8622,2.862,2.8618,2.8654,2.8656,2.8659,0,0,0,0,0,0,0,0,0,0,0,0,0,2.852,2.8523,2.8652,2.8653,2.8653,2.869,2.869,2.8691,2.8625,2.8622,2.8619,2.8617,2.8653,2.8656,2.866,0,0,0,0,0,0,0,0,0,0,0,0,0,2.857,2.8524,2.8652,2.8625,2.8623,2.8689,2.869,2.8691,2.8625,2.8622,2.8618,2.8615,2.8651,2.8656,2.866,2.8755,0,0,2.8674,2.8676,0,0,0,0,0,0,0,0,2.8567,2.8575,2.8628,2.8627,2.8624,2.8649,2.8657,2.8712,2.8626,2.8624,2.8618,2.8614,2.8654,2.8659,2.8673,2.8757,2.8758,2.8674,2.8677,2.8679,2.868,0,0,0,0,0,0,0,2.8564,2.8573,2.8667,2.8629,2.8627,2.8609,2.8613,2.8667,2.8657,2.8624,2.8619,2.8625,2.8653,2.8669,2.8673,2.8759,2.8674,2.8678,2.8681,2.8683,2.892,2.8923,0,0,0,0,0,0,2.8564,2.857,2.8666,2.8668,2.8587,2.8614,2.8618,2.8644,2.8657,2.8655,2.8628,2.8622,2.8662,2.8668,2.8674,2.8784,2.8679,2.8683,2.8686,2.8916,2.892,2.8924,0,0,0,0,0,0,2.8561,2.8573,2.8664,2.8618,2.8628,2.862,2.865,2.8647,2.8662,2.8659,2.8657,2.8646,2.866,2.8668,2.8735,2.8784,2.8685,2.869,2.8912,2.8917,2.8922,2.9005,0,0,0,0,0,0,2.8558,2.8573,2.8609,2.8619,2.8631,2.8725,2.8653,2.865,2.8671,2.8663,2.8676,2.8675,2.8658,2.8729,2.874,2.8789,2.8693,2.8907,2.8914,2.8921,2.8998,2.9013,2.9026,0,0,0,0,0,2.8553,2.8631,2.8611,2.8623,2.8677,2.8728,2.8735,2.8715,2.8675,2.8711,2.8709,2.8674,2.8778,2.8736,2.8748,2.8799,2.8904,2.8912,2.892,2.8992,2.901,2.9025,0,0,0,0,0,0,2.8626,2.8632,2.861,2.8693,2.8711,2.8717,2.8762,2.8735,2.8764,2.8755,2.8729,2.8732,2.8804,2.8809,2.8762,2.889,2.8834,2.8845,2.8885,2.8902,2.8915,2.8911,2.8697,0,0,0,0,0,2.8652,2.8695,2.8697,2.877,2.878,2.877,2.8792,2.8775,2.8792,2.8799,2.8801,2.8818,2.8854,2.8879,2.8912,2.8999,2.9,2.904,2.9054,2.9065,2.9074,2.9118,2.9136,2.8951,2.8951,2.895,0,0,2.8706,2.8714,2.8742,2.8785,2.8797,2.884,2.8777,2.8826,2.8857,2.8806,2.8869,2.8872,2.8889,2.8966,2.9,2.8972,2.9126,2.9075,2.9084,2.9087,2.9129,2.9146,2.9162,2.8956,2.8955,2.8954,0,0,2.8825,2.8837,2.8898,2.8911,2.893,2.8922,2.8937,2.8948,2.8947,2.9011,2.8973,2.901,2.9073,2.9086,2.9101,2.9225,2.9193,2.9237,2.9308,2.9351,2.9366,2.9379,2.9421,2.9436,2.9246,2.9247,2.9247,0,2.8888,2.8953,2.8932,2.8984,2.9003,2.896,2.9021,2.9034,2.9063,2.9076,2.9045,2.9122,2.9131,2.9209,2.924,2.9254,2.9269,2.9234,2.9366,2.9378,2.939,2.943,2.9446,2.9252,2.9251,2.925,2.925,0,2.9029,2.9075,2.9122,2.9151,2.9176,2.9232,2.9218,2.9246,2.9227,2.9223,2.9287,2.9296,2.9329,2.9347,2.933,2.9423,2.9405,2.937,2.9312,2.9413,2.945,2.9465,2.9259,2.9257,2.9255,2.9254,0,0,2.9194,2.9211,2.9228,2.924,2.9258,2.9292,2.9346,2.9379,2.9402,2.9424,2.9466,2.9521,2.9489,2.9506,2.9489,2.9528,2.9623,2.9488,2.9488,2.9511,2.9725,2.9749,2.9767,2.9603,2.9606,2.9609,2.9722,0,2.931,2.9403,2.9386,2.9476,2.9516,2.9476,2.9523,2.9538,2.9536,2.9569,2.9566,2.9604,2.956,2.957,2.9607,2.9604,2.9665,2.9596,2.9641,2.9643,2.9635,2.9786,2.9812,2.9919,2.9737,2.9739,2.9741,0,2.9458,2.9485,2.958,2.959,2.9606,2.9648,2.9677,2.971,2.9726,2.9721,2.9741,2.9717,2.9768,2.9712,2.9782,2.9735,2.9753,2.9755,2.9758,2.9759,2.9696,2.979,2.9953,2.9968,2.9764,2.9762,2.9761,0,2.9565,2.9626,2.9689,2.9701,2.9715,2.9746,2.9753,2.9766,2.9787,2.9812,2.9824,2.9855,2.9872,2.9895,2.988,2.9841,2.9952,2.9895,2.9948,2.9948,2.9971,2.9969,3.0137,2.9987,2.9986,2.9986,2.9986,0,2.9696,2.9754,2.9737,2.9776,2.984,2.982,2.9884,2.9886,2.9898,2.9935,2.9903,2.9939,2.9918,2.9952,2.994,2.9998,3.0007,3.0003,2.9999,3.0004,3.0005,3.0014,3.0005,2.999,2.9989,2.9989,2.9988,0,2.9825,2.9817,2.9883,2.9891,2.9895,2.9941,2.9948,2.9983,2.9979,3.0027,3.0037,3.003,3.0068,3.0055,3.0096,3.0088,3.0162,3.0149,3.0157,3.0152,3.0205,3.0199,3.0383,3.0405,3.0243,3.0245,3.0246,0,2.9907,2.9951,2.9965,2.9988,2.9998,3.0036,3.0057,3.0039,3.0062,3.0084,3.0116,3.0152,3.0179,3.0242,3.0239,3.027,3.0256,3.0318,3.026,3.0264,3.0254,3.025,3.0254,3.0329,3.0331,3.0332,3.0334,0,3.0053,3.0047,3.0079,3.011,3.0137,3.016,3.018,3.0201,3.0184,3.0212,3.0251,3.0272,3.0314,3.0349,3.0377,3.0382,3.0355,3.0353,3.0366,3.0371,3.0372,3.037,3.0185,3.0348,3.0346,3.0345,3.0344,3.0344,3.016,3.0197,3.0211,3.0248,3.0262,3.0282,3.0315,3.0315,3.0348,3.038,3.0368,3.0412,3.0426,3.0461,3.0471,3.0504,3.048,3.05,3.0505,3.0509,3.0515,3.0369,3.051,3.0509,3.0509,3.0509,3.0508,0,3.0302,3.031,3.0344,3.0373,3.0402,3.0376,3.0397,3.0422,3.0461,3.0478,3.0505,3.0549,3.0583,3.0584,3.0615,3.0641,3.0629,3.065,3.0646,3.0648,3.0536,3.052,3.0659,3.0659,3.0659,3.0659,3.0659,3.0659,3.0379,3.0439,3.0435,3.0501,3.0508,3.0551,3.0565,3.0583,3.0595,3.0646,3.0675,3.0675,3.0685,3.0716,3.0746,3.0745,3.0757,3.0782,3.0776,3.0671,3.0656,3.0642,3.0626,3.0785,3.0785,3.0884,3.0885,3.0886]},{"header":{"parameterUnit":"m.s-1","parameterCategory":1,"la1":30.2991,"la2":30.254,"lo1":-89.0895,"lo2":-89.0444,"dy":0.0017,"dx":0.0017,"nx":28,"ny":28,"refTime":"2023-08-18T09:00:00:Z","depth":0,"parameterNumber":3,"parameterNumberName":"V-component_of_WINDS"},"data":[0,0,0,0,0,0,0,0,0,0,0,0,0,0,0,0,0,0,0,0,0,0,0,0,0,0,0,0,0,0,0,0,0,0,0,0,0,0,0,0,0,0,0,0,0,0,0,0,0,0,0,0,0,0,0,0,0,0,3.9899,3.9901,0,4.0072,4.0074,4.0076,4.0114,4.0113,4.0111,4.011,4.0282,4.0288,4.0293,0,0,0,0,0,0,0,0,0,0,0,0,0,3.9596,3.9602,3.9899,3.9901,3.9903,4.0071,4.0074,4.0076,4.0114,4.0113,4.0111,4.011,4.028,4.0287,4.0294,0,0,0,0,0,0,0,0,0,0,0,0,0,3.9744,3.9604,3.9898,3.9942,3.9948,4.0071,4.0074,4.0077,4.0114,4.0113,4.0111,4.0109,4.0278,4.0286,4.0295,4.0384,0,0,4.0321,4.0325,0,0,0,0,0,0,0,0,3.9736,3.9755,3.9934,3.994,3.9946,4.0069,4.003,4.018,4.0115,4.0051,4.011,4.0108,4.0213,4.0226,4.0263,4.0392,4.04,4.0322,4.0327,4.0331,4.0333,0,0,0,0,0,0,0,3.9725,3.9748,3.9967,3.9936,3.9944,3.9952,3.9971,4.0059,4.014,4.0057,4.006,4.008,4.0215,4.0254,4.0267,4.0402,4.0322,4.0329,4.0334,4.0338,4.0612,4.0614,0,0,0,0,0,0,3.9708,3.9739,3.9962,3.9972,3.9834,3.9959,3.998,4.0032,4.0139,4.0154,4.0081,4.0081,4.0241,4.0257,4.0273,4.0384,4.0331,4.0339,4.0344,4.061,4.0613,4.0615,0,0,0,0,0,0,3.9702,3.9728,3.9955,3.9857,3.9886,3.9966,4.0024,4.0036,4.0075,4.0158,4.0172,4.0106,4.024,4.0261,4.0356,4.039,4.0342,4.035,4.0608,4.0611,4.0614,4.0607,0,0,0,0,0,0,3.9693,3.9725,3.9761,3.9857,3.9891,4.0037,4.0026,4.0041,4.009,4.0091,4.0185,4.0199,4.024,4.0343,4.0365,4.0401,4.0357,4.0605,4.0609,4.0613,4.0604,4.0609,4.0613,0,0,0,0,0,3.9682,3.9752,3.9763,3.9789,3.9938,4.0038,4.0058,4.0105,4.0093,4.0129,4.0182,4.0196,4.0383,4.0353,4.0377,4.0417,4.0603,4.0608,4.0612,4.0602,4.0608,4.0613,0,0,0,0,0,0,3.9656,3.9765,3.9779,3.9882,3.9951,4.0045,4.0092,4.011,4.0183,4.0181,4.0235,4.0256,4.0347,4.0392,4.0356,4.0508,4.0492,4.0502,4.0476,4.0483,4.0487,4.0474,4.0364,0,0,0,0,0,3.9663,3.9736,3.9827,3.9909,3.9943,4.0011,4.0057,4.0088,4.016,4.0189,4.0249,4.0318,4.0392,4.044,4.0513,4.0611,4.0631,4.065,4.0655,4.0658,4.0666,4.0719,4.0728,4.0631,4.0631,4.0631,0,0,3.9676,3.9745,3.9788,3.9906,3.9963,4.0036,4.0036,4.0114,4.0168,4.02,4.0294,4.0341,4.0421,4.0517,4.0563,4.0557,4.0697,4.0664,4.0666,4.0672,4.0725,4.0734,4.0742,4.0634,4.0634,4.0633,0,0,3.9739,3.9799,3.9874,3.9931,4.0018,4.0062,4.008,4.0172,4.0204,4.0299,4.0325,4.0389,4.0517,4.0572,4.0617,4.07,4.0715,4.0722,4.0746,4.0798,4.0805,4.0812,4.084,4.085,4.073,4.073,4.073,0,3.9745,3.9858,3.9909,3.9986,4.0036,4.0071,4.0145,4.0198,4.0303,4.0336,4.0328,4.0488,4.0545,4.0654,4.0674,4.071,4.073,4.0711,4.08,4.0808,4.0815,4.0842,4.0853,4.073,4.073,4.073,4.073,0,3.986,3.9938,3.9988,4.009,4.0146,4.0221,4.0281,4.0331,4.0357,4.0402,4.0497,4.0566,4.0653,4.0682,4.0707,4.0795,4.0788,4.079,4.0775,4.0824,4.085,4.0861,4.073,4.073,4.073,4.073,0,0,3.9911,4.0041,4.0058,4.0104,4.0202,4.0262,4.0338,4.0425,4.0466,4.0537,4.0601,4.0707,4.0709,4.076,4.0792,4.0837,4.0897,4.0834,4.0836,4.0842,4.0995,4.0992,4.1004,4.0907,4.091,4.0911,4.0988,0,3.9985,4.0123,4.0171,4.0285,4.0356,4.0389,4.0455,4.0521,4.0565,4.0631,4.0678,4.0753,4.0751,4.0781,4.0828,4.088,4.0928,4.0875,4.0965,4.0968,4.0943,4.1018,4.1016,4.1084,4.0999,4.1001,4.1002,0,4.0089,4.0163,4.0284,4.0372,4.0404,4.0462,4.0545,4.0608,4.0682,4.0711,4.0768,4.0796,4.0875,4.0856,4.0964,4.0926,4.0966,4.0997,4.1001,4.101,4.0987,4.1028,4.1108,4.1117,4.1019,4.1018,4.1016,0,4.0112,4.0242,4.0331,4.037,4.0475,4.0515,4.056,4.0633,4.0682,4.0753,4.0785,4.0864,4.0907,4.0967,4.1015,4.0997,4.1118,4.1103,4.1142,4.1141,4.1165,4.1163,4.1251,4.1193,4.1193,4.1193,4.1192,0,4.0189,4.0261,4.0343,4.0397,4.0479,4.0532,4.0611,4.0658,4.0722,4.0785,4.0818,4.0876,4.0937,4.1002,4.104,4.1123,4.1142,4.1166,4.1175,4.1163,4.1159,4.1189,4.1184,4.1195,4.1195,4.1194,4.1194,0,4.0228,4.0286,4.0385,4.0476,4.0501,4.0557,4.0634,4.0687,4.0733,4.0811,4.0833,4.0903,4.0982,4.1036,4.1137,4.1162,4.1251,4.126,4.1226,4.123,4.1266,4.1261,4.1375,4.1392,4.1323,4.1324,4.1324,0,4.0273,4.0329,4.0427,4.0472,4.0518,4.059,4.064,4.0694,4.0744,4.0833,4.0875,4.0956,4.1024,4.1147,4.1206,4.1283,4.1293,4.1328,4.1305,4.129,4.1292,4.1288,4.1293,4.1331,4.1331,4.1332,4.1332,0,4.0345,4.0371,4.0442,4.0523,4.0582,4.0648,4.0715,4.0749,4.0815,4.0869,4.0951,4.1003,4.1106,4.1186,4.1268,4.1313,4.1333,4.1339,4.1352,4.1339,4.1316,4.1328,4.1234,4.1336,4.1335,4.1335,4.1335,4.1335,4.0388,4.0439,4.0515,4.0593,4.0649,4.071,4.0765,4.0817,4.0886,4.0975,4.1002,4.1086,4.1158,4.1271,4.1317,4.1382,4.1379,4.1398,4.1403,4.1406,4.1405,4.1307,4.1397,4.1397,4.1397,4.1397,4.1397,0,4.046,4.0511,4.0582,4.0675,4.0735,4.0751,4.0825,4.0874,4.0948,4.1014,4.108,4.1173,4.125,4.1315,4.1394,4.1434,4.1445,4.1453,4.1449,4.1459,4.1404,4.1384,4.1442,4.1442,4.1442,4.1442,4.1442,4.1442,4.0505,4.0592,4.0627,4.0741,4.0791,4.0875,4.0915,4.0971,4.1024,4.1127,4.1191,4.1234,4.1299,4.1383,4.1454,4.1471,4.1497,4.1503,4.1522,4.1468,4.1463,4.1458,4.144,4.1509,4.1509,4.1572,4.1572,4.1572]}]]